Location: Hyderabad
(17.3833°N, 78.4667°E)
Time: 13:23:02
(UTC+05:30)

Daily predictions for brighter satellites

Satellite Brightness Start Highest point End
(mag) Time Altitude Azimuth Time Altitude Azimuth Time Altitude Azimuth
CZ-4C R/B 4.2 19:01:06 10° NW 19:08:18 44° WSW 19:15:43 10° S
NOAA 12 4.2 19:03:53 10° SSE 19:09:09 67° ENE 19:14:24 10° N
Spot 2 Rocket 3.7 19:05:18 10° SSE 19:10:14 52° ENE 19:15:10 10° N
Cosmos 494 Rocket 4.1 19:05:13 10° NNW 19:10:27 87° WSW 19:15:37 10° SSE
Okean 1-7 3.7 19:10:18 10° NNE 19:14:15 34° E 19:18:14 10° SSE
Cosmos 1356 Rocket 3.6 19:16:02 10° S 19:20:06 53° E 19:24:14 10° NNE
SEDSat Delta rocket 4.2 19:15:47 10° W 19:20:28 44° NNW 19:24:39 10° NE
CENTAUR R/B 4.0 19:13:42 10° N 19:20:38 30° ENE 19:27:31 10° ESE
ALOS 3.5 19:19:03 10° SE 19:22:40 22° ENE 19:26:16 10° NNE
SJ-6B 4.1 19:21:24 10° S 19:25:17 45° W 19:29:07 10° NNW
Cosmos 1624 Rocket 4.4 19:20:26 10° SSW 19:25:38 69° WNW 19:30:53 10° N
FREGAT/IRIS 3.7 19:26:06 10° S 19:29:06 47° W 19:32:06 10° NNW
Abrixas 2.4 19:28:25 10° SSW 19:31:25 63° SE 19:34:24 10° NE
METEOR-M 4.1 19:28:09 10° SSE 19:33:28 78° ENE 19:38:47 10° N
Meteor 2-3 Rocket 4.2 19:28:25 10° SSW 19:34:00 66° W 19:39:34 10° N
Cosmos 1825 4.3 19:39:47 11° ENE 19:39:47 11° ENE 19:40:25 10° ENE
Orbus 7S 3.8 19:32:49 10° WSW 19:41:19 74° SSE 19:44:03 14° ENE
Resurs 01 Rocket 2.1 19:37:41 10° S 19:42:01 61° WSW 19:46:22 10° NNW
HJ-1C 4.4 19:39:35 10° S 19:42:46 46° W 19:45:58 10° NNW
Cosmos 724 4.4 19:39:58 10° NNW 19:46:10 72° ENE 19:51:43 13° SSE
Sich 1 Rocket 4.1 19:42:34 10° SSE 19:46:47 38° E 19:51:01 10° NNE
ATLAS 2A CENTAUR R/B 3.1 19:42:32 10° W 19:48:15 27° NNW 19:50:29 10° NE
Cosmos 1452 Rocket 3.4 19:44:43 10° S 19:49:55 67° ESE 19:55:08 10° NNE
Cosmos 2184 Rocket 3.9 19:46:11 10° S 19:52:21 87° E 19:58:30 10° N
TIMED 4.4 19:49:02 10° SSW 19:53:23 89° E 19:57:44 10° NNE
CZ-4B DEB 3.1 19:52:04 10° S 19:55:19 67° W 19:58:33 10° NNW
Abrixas rocket 2.2 19:56:36 10° NW 19:59:59 73° NE 20:01:00 41° ESE
SL-27 R/B 3.8 20:00:17 10° NNE 20:02:45 23° ENE 20:02:45 23° ENE
Stardust Del rocket 2.7 20:01:40 10° WNW 20:04:14 76° NNE 20:05:20 40° E
USA 215 3.3 19:59:47 17° SSE 20:05:04 78° SW 20:11:38 10° NW
Cosmos 1908 Rocket 3.6 20:05:31 23° SSE 20:08:02 53° E 20:12:19 10° NNE
Cosmos 1733 Rocket 3.9 20:04:15 10° SSW 20:08:32 50° W 20:12:48 10° N
ERBS 3.2 20:07:58 10° N 20:11:01 34° NE 20:11:01 34° NE
CZ-2D R/B 3.2 20:09:02 25° S 20:11:12 81° W 20:15:00 10° NNW
ATLAS 5 CENTAUR R/B 2.6 20:11:21 10° NNW 20:17:34 58° ENE 20:20:09 36° SE
SWIFT 4.2 20:16:36 10° SSW 20:18:18 18° S 20:18:18 18° S
USA 186 1.8 20:20:20 64° WSW 20:20:27 65° W 20:23:34 10° NNW
Cosmos 1862 3.2 20:24:30 61° SSE 20:25:07 79° E 20:29:11 10° N
Atlas Centaur 2 3.4 20:23:43 10° NNW 20:25:41 14° N 20:26:33 13° NNE
Ariane H10+ 3.3 20:18:59 10° WSW 20:31:39 35° SSW 20:33:05 31° SSE
Cosmos 2278 Rocket 3.2 20:28:31 10° SW 20:33:55 46° WNW 20:39:19 10° N
deb Chang Zheng 4 3.5 20:30:05 10° NNE 20:34:31 89° WNW 20:35:38 51° SSW
Meteor 2-6 Rocket 4.1 20:29:44 10° N 20:35:34 77° E 20:37:07 50° SSE
EO 1 Delta rocket 3.7 20:31:25 10° NNE 20:36:29 72° E 20:36:49 69° SE
FENGYUN 3A 4.4 20:32:56 16° S 20:37:03 49° W 20:42:14 10° NNW
YAOGAN 11 4.0 20:37:41 79° E 20:37:43 79° ENE 20:42:14 10° N
H-2A R/B 3.8 20:39:42 21° NNE 20:39:42 21° NNE 20:41:30 10° NNE
Cosmos 1606 4.3 20:34:13 10° N 20:36:06 25° NNE 20:36:06 25° NNE
COSMOS 2406 3.3 20:38:03 10° NNW 20:43:44 71° WSW 20:45:22 46° S
Nadezhda 3 Rocket 3.9 20:46:36 10° N 20:52:56 69° E 20:53:12 68° ESE
Envisat 3.6 21:00:43 48° NNE 21:00:43 48° NNE 21:04:26 10° N
Cosmos 1782 4.4 20:58:30 10° NNW 21:01:49 33° W 21:01:49 33° W
CENTAUR R/B 3.9 21:03:40 10° NW 21:11:25 46° WSW 21:14:45 32° SSW
ERS-1 Rocket 3.7 21:12:52 49° W 21:12:52 49° W 21:17:18 10° NNW
SL-8 Rocket 4.1 21:16:30 68° N 21:16:30 68° N 21:21:54 10° N
FALCON 9 R/B 3.7 21:18:34 10° WNW 21:48:11 77° SW 21:48:47 75° S
